Tracking 31011 objects as of 12-Jul-2025
HD Live streaming from Space Station
objects crossing your sky now

MEASAT 3D

Track MEASAT 3D now!
MEASAT 3D is classified as:


NORAD ID: 52904
Int'l Code: 2022-067B
Perigee: 35,789.9 km
Apogee: 35,797.4 km
Inclination: 0.1 °
Period: 1,436.1 minutes
Semi major axis: 42164 km
RCS: Unknown
Launch date: June 22, 2022
Source: Malaysia (MALA)
Launch site: FRENCH GUIANA (FRGUI)
Your satellite tracking list
Your tracking list is empty




NASA's NSSDC Master Catalog

Two Line Element Set (TLE):
1 52904U 22067B   25192.91780169 -.00000232  00000-0  00000-0 0  9995
2 52904   0.0554 298.7759 0000892 107.7293 305.4817  1.00272048 11230
Source of the keplerian elements: AFSPC